Имменштадт

Германия     47°34′00″N   10°13′00″E
темп.,
°C
ветер,
м/с
пор.,
м/с
влажн.,
%
обл.,
%
осадки,
мм/ч
давл.,
гПа
погр.,
м
9 мая, вс
вс923:00+7ююв3353100 0.0 101745
02:00+7ююв335054 0.0 101643
05:00+6ююв436088 0.0 101641
08:00+11ююв336143 0.0 101381
11:00+20юв113569 0.0 1011912
14:00+23ююв123127 0.0 10091900
17:00+21ю223894 0.0 10071484
20:00+14ю237952 0.0 100953
10 мая, пн
пн1023:00+9ююв457788 0.0 101073
02:00+8ююв457770 0.0 101091
05:00+8ююв4674100 0.0 1009115
08:00+12ю24652 0.0 1010153
11:00+20ююв1240100 0.0 10071054
14:00+23ссз1635100 0.0 10062181
17:00+17ссз347047 0.1 1008496
20:00+13с1192100 2.0 100720
11 мая, вт
вт1123:00+10юз219644 0.0 100817
02:00+8юз119648 0.0 100943
05:00+6ю119646 0.0 101018
08:00+8ссз1193100 0.0 1009236
11:00+9с2395100 0.2 1008364
14:00+8с1298100 0.4 1007220
17:00+8сз1199100 1.5 1007147
20:00+8зсз11100100 3.3 1007122
12 мая, ср
ср1223:00+8зсз22100100 5.9 1008167
02:00+5зюз3898100 19.8 10111030
05:00+3юз2599100 7.7 1013621
08:00+3юз2599100 12.1 1013531
11:00+2юз2499100 5.4 1013373
14:00+3зюз2399100 10.4 1013381
17:00+3зюз1299100 3.4 1013381
20:00+2зюз1299100 7.1 1014327
13 мая, чт
чт1323:00+2юз1299100 2.9 1014353
02:00+2юз1399100 5.4 1013297
05:00+3ююз1299100 2.1 1012268
08:00+3юз1199100 4.4 1011505
11:00+4ююз1198100 2.1 1011487
14:00+5юв1196100 3.0 1011325
17:00+8ююв1177100 0.3 1009755
20:00+6ююв1194100 0.7 101029